Torna al catalogo

ARIANE 40 R/B

AttivoSSO
NORAD 20443·ROCKET BODY·🇫🇷 France

Lanciato Jan 22, 1990 da Guiana Space Centre

Loading…

Prossimi Passaggi (prossime 24 ore)

TLE

AggiornatoSource: Space-Track

Epoca: Sep 14, 2026, 21:24 UTC

1 20443U 90005H   26257.89189272  .00000144  00000-0  59044-4 0  9990
2 20443  98.2868 312.6791 0009981   2.6394 357.4846 14.39963079920038

Traccia ARIANE 40 R/B in tempo reale con AllMySat

Download on the App Store